Notices

What's New in latest Release from April 7th, 2021:

- Updated Glossary, including Speed of Maximum Gust, and Total Hourly Precipitation

- Updated national and regional climate services offices contacts and prices information

- Addition of station inventory lists for 1981-2010, 1971-2000, and 1961-1990 Normals.

If you haven't already, please take our survey and provide feedback about our website: https://eccc.sondage-survey.ca/f/LanguageSelection.aspx?s=442ca660-fcf1-47c0-95a9-59707d6fd709

Hourly Data Report for November 14, 2003

TORONTO CITY
ONTARIO

43°40'00.000" N
79°24'00.000" W
112.50 m
6158355
71508
XTO

Download Data

Hourly Data (November 2003)
Hourly Data Report for November 14, 2003
TIME
LST
Temp Definition
°C
Dew Point Definition
°C
Rel Hum Definition
%
Precip. Amount Definition
mm

Wind Dir Definition
10's deg

Wind Spd Definition
km/h
Visibility Definition
km
Stn Press Definition
kPa
Hmdx Definition


Wind Chill Definition


Weather Definition


00:00 -1.3 -8.4 58   LegendMM LegendMM LegendMM 100.02     LegendNANA
01:00 -1.6 -8.2 61   LegendMM LegendMM LegendMM 100.05     LegendNANA
02:00 -2.0 -8.2 62   LegendMM LegendMM LegendMM 100.11     LegendNANA
03:00 -2.2 -8.6 61   LegendMM LegendMM LegendMM 100.13     LegendNANA
04:00 -1.4 -8.9 57   LegendMM LegendMM LegendMM 100.14     LegendNANA
05:00 -1.7 -8.5 60   LegendMM LegendMM LegendMM 100.20     LegendNANA
06:00 -1.8 -8.0 63   LegendMM LegendMM LegendMM 100.20     LegendNANA
07:00 -1.2 -6.8 66   LegendMM LegendMM LegendMM 100.18     LegendNANA
08:00 -0.8 -5.3 72   LegendMM LegendMM LegendMM 100.17     LegendNANA
09:00 -0.2 -4.7 72   LegendMM LegendMM LegendMM 100.13     LegendNANA
10:00 1.8 -3.0 70   LegendMM LegendMM LegendMM 100.08     LegendNANA
11:00 2.4 -2.2 72   LegendMM LegendMM LegendMM 100.03     LegendNANA
12:00 2.9 -2.1 70   LegendMM LegendMM LegendMM 99.90     LegendNANA
13:00 2.7 -0.5 79   LegendMM LegendMM LegendMM 99.82     LegendNANA
14:00 3.4 -0.5 76   LegendMM LegendMM LegendMM 99.75     LegendNANA
15:00 4.2 -0.5 71   LegendMM LegendMM LegendMM 99.77     LegendNANA
16:00 4.6 -0.3 70   LegendMM LegendMM LegendMM 99.81     LegendNANA
17:00 4.8 -0.5 68   LegendMM LegendMM LegendMM 99.82     LegendNANA
18:00 5.0 0.2 71   LegendMM LegendMM LegendMM 99.86     LegendNANA
19:00 4.4 1.4 81   LegendMM LegendMM LegendMM 99.95     LegendNANA
20:00 2.9 0.5 84   LegendMM LegendMM LegendMM 100.07     LegendNANA
21:00 2.2 -0.6 82   LegendMM LegendMM LegendMM 100.14     LegendNANA
22:00 2.3 -0.4 82   LegendMM LegendMM LegendMM 100.23     LegendNANA
23:00 1.9 -0.8 82   LegendMM LegendMM LegendMM 100.28     LegendNANA

Notes on Data Quality.

Legend

  • E = Estimated
  • M = Missing
  • NA = Not Available*
  • [empty] = Indicates an unobserved value
Date modified: